This is the latest recevied weather packets stored in our database for station/object SQ5AAG-2. If no packets are shown the sender has not sent any weather packets the latest 10 day(s).
| Time | Temp. | Humidity | Pressure | Rain* | Wind** | Luminosity | Snow |
|---|---|---|---|---|---|---|---|
| 1777874780 | 22.22° C | 33% | 999 hPa | 0 mm | - | - | - |
| 1777874485 | 22.22° C | 33% | 999 hPa | 0 mm | - | - | - |
| 1777874480 | 22.22° C | 33% | 999 hPa | 0 mm | - | - | - |
| 1777874180 | 22.22° C | 33% | 999 hPa | 0 mm | - | - | - |
| 1777873880 | 21.67° C | 34% | 998.9 hPa | 0 mm | - | - | - |
| 1777873579 | 21.67° C | 35% | 998.8 hPa | 0 mm | - | - | - |
| 1777873279 | 20.56° C | 35% | 998.9 hPa | 0 mm | - | - | - |
| 1777872979 | 20.56° C | 35% | 998.8 hPa | 0 mm | - | - | - |
| 1777872679 | 20.56° C | 35% | 998.7 hPa | 0 mm | - | - | - |
| 1777872379 | 20.56° C | 35% | 998.8 hPa | 0 mm | - | - | - |
| 1777872078 | 20.56° C | 35% | 999 hPa | 0 mm | - | - | - |
| 1777871779 | 20.56° C | 36% | 998.9 hPa | 0 mm | - | - | - |
| 1777871477 | 20.56° C | 35% | 998.9 hPa | 0 mm | - | - | - |
| 1777871177 | 20.56° C | 36% | 999.1 hPa | 0 mm | - | - | - |
| 1777870877 | 20.56° C | 36% | 999.1 hPa | 0 mm | - | - | - |
| 1777870576 | 20.56° C | 36% | 999.1 hPa | 0 mm | - | - | - |
| 1777870276 | 20.56° C | 36% | 999.1 hPa | 0 mm | - | - | - |
| 1777869976 | 20° C | 37% | 999 hPa | 0 mm | - | - | - |
| 1777869676 | 20° C | 37% | 998.9 hPa | 0 mm | - | - | - |
| 1777869375 | 20° C | 37% | 999.1 hPa | 0 mm | - | - | - |
| 1777869122 | 19.44° C | 38% | 999 hPa | 0 mm | - | - | - |
| 1777869075 | 19.44° C | 38% | 998.8 hPa | 0 mm | - | - | - |
| 1777868862 | 19.44° C | 38% | 999 hPa | 0 mm | - | - | - |
| 1777868860 | 18.89° C | 40% | 999 hPa | 0 mm | - | - | - |
| 1777868775 | 19.44° C | 38% | 999 hPa | 0 mm | - | - | - |
* Rain latest hour (hover to see other rain measurements)
** Current wind speed in m/s (hover to see current wind gust speed)